User: anonymous   Login
Location: Laguna de la Cañada del Gallo
(40.3974°N, 5.2096°W)
Time: 22:48:16
(UTC+00:00)
Language:

ATLAS 3B R/B - Orbit

View from above orbital plane
View from above orbital plane
View from above satellite
View from above satellite

Ground track
Ground track

The orbit data is extracted from the following two-line orbital elements,

1 28538U 05004B   24170.58773742 -.00000081  00000-0  91417-5 0  9999
2 28538  63.8259 326.3614 0207128 296.6006  61.3932 13.43259612  7293
Epoch (UTC): 18 June 2024 14:06:20
Eccentricity: 0.0207128
inclination: 63.8259°
perigee height: 942 km
apogee height: 1252 km
right ascension of ascending node: 326.3614°
argument of perigee: 296.6006°
revolutions per day: 13.43259612
mean anomaly at epoch: 61.3932°
orbit number at epoch: 729

The dashed part of the orbit path shows where the satellite is in the earth's shadow,  

DLR